Regional Weather Roundup
Issued by NWS Jackson, KY

Home | Current Version | Previous Version | Graphics & Text | Print | Product List | Glossary Off
Versions: 1 2 3 4 5 6 7 8 9 10 11 12 13 14 15 16 17 18 19 20 21 22 23 24 25 26 27 28 29 30 31 32 33 34 35 36 37 38 39 40 41 42 43 44 45 46 47 48 49 50

000
ASUS43 KJKL 010710
RWRJKL

EAST KENTUCKY HOURLY WEATHER ROUNDUP
NATIONAL WEATHER SERVICE JACKSON KY
300 AM EDT MON MAY 01 2017

NOTE: "FAIR" INDICATES FEW OR NO CLOUDS BELOW 12,000 FEET WITH
NO SIGNIFICANT WEATHER AND/OR OBSTRUCTIONS TO VISIBILITY.

* THESE REPORTS ARE NOT UNDER NWS QUALITY CONTROL AND MAY NOT
  REPORT WEATHER SUCH AS PRECIPITATION AND FOG.

KYZ079-080-083-085-087-088-110-112-115-119-120-010800
...EASTERN KENTUCKY...

CITY           SKY/WX    TMP DP  RH WIND       PRES   REMARKS
JACKSON        CLOUDY    72  57  59 CALM      29.81F
LONDON         LGT RAIN  70  61  73 S10G17    29.80F
SOMERSET*      CLOUDY    64  61  88 S3        29.80F
MONTICELLO*    CLOUDY    69  63  81 SE13G20   29.78F
WILLIAMSBURG*  CLOUDY    68  64  88 S13       29.81F
MIDDLESBORO*   CLOUDY    68  63  83 S7        29.85F
HARLAN APT*    MOSUNNY   68  59  73 SE3       29.86F
PIKE CO APT*   MOCLDY    74  58  57 S8        29.84S
BIG SANDY APT* CLOUDY    75  58  54 S9        29.82F
MOREHEAD APT*  CLOUDY    73  57  56 S7        29.80S
$$

KYZ035-036-041-042-044-050-067-078-099-010800
...CENTRAL KENTUCKY...

CITY           SKY/WX    TMP DP  RH WIND       PRES   REMARKS
MT STERLING*   CLOUDY    72  61  68 SW16G22   29.78F
FLEMING/MASON* CLOUDY    72  59  64 S9        29.76F
DANVILLE*      CLOUDY    66  61  82 S12G18    29.76F
LEXINGTON      LGT RAIN  68  62  81 S13       29.74F
FRANKFORT      LGT RAIN  69  62  78 S12       29.70F
LOUISVILLE     HVY RAIN  68  64  87 S18G26    29.66F FOG
LEBANON*         N/A     68  63  83 S16G24    29.73F
GLASGOW*       CLOUDY    67  66  99 S12G20    29.73F
BOWLING GREEN  CLOUDY    68  65  90 S16G28    29.71F
$$

KYZ091>093-OHZ055-061-077-WVZ005-015-034-035-042-010800
...SOUTHERN OHIO/WEST VIRGINIA...

CITY           SKY/WX    TMP DP  RH WIND       PRES   REMARKS
COVINGTON      LGT RAIN  69  63  81 S20       29.68F
COLUMBUS       CLOUDY    75  58  55 S10       29.73F
DAYTON         LGT RAIN  71  60  68 S15G25    29.70F
WILMINGTON     CLOUDY    70  61  73 S13       29.72F
HUNTINGTON     CLOUDY    77  56  48 S8        29.78F
CHARLESTON     MOCLDY    75  56  51 S6        29.82F
PINEVILLE*     PTCLDY    62  59  90 MISG      29.96F
BECKLEY        MOCLDY    67  59  75 SE12G18   29.95F
BLUEFIELD      MOCLDY    66  58  75 S10G17    30.00F
LOGAN CO APT*  PTSUNNY   73  57  56 S8G15     29.86F
$$

VAZ002-007-008-TNZ017-027-036-066-071-010800
...SOUTHWEST VIRGINIA/EAST TENNESSEE...

CITY           SKY/WX    TMP DP  RH WIND       PRES   REMARKS
WISE*          PTCLDY    70  55  60 S13G21    29.93F
JONESVILLE*    PTSUNNY   68  61  77 CALM      29.90F
ABINGDON*      CLOUDY    74  61  63 SW10G17   29.95F
BRISTOL        CLOUDY    73  62  68 VRB7      29.91F
MORRISTOWN*    PTSUNNY   66  63  88 E5        29.85F
SEVIERVILLE*   MOSUNNY   66  61  82 NE5       29.84F
KNOXVILLE      CLOUDY    72  62  71 W8        29.82F
LAFOLLETTE*    CLOUDY    68  64  88 VRB3      29.87F
OAK RIDGE      MOCLDY    67  64  90 CALM      29.86F
CROSSVILLE     MOCLDY    66  61  84 S9G23     29.84F
NASHVILLE      LGT RAIN  67  64  90 S15G24    29.74F
$$

...KEY TO REMARKS...
VSB - VISIBILITY IN MILES
WCI - WIND CHILL INDEX
HX  - HEAT INDEX

$$



USA.gov is the U.S. government's official web portal to all federal, state and local government web resources and services.